User: anonymous   Login
Location: Follega
(52.8850°N, 5.7362°E)
Time: 10:27:29
(UTC+00:00)
Language:

Cosmos 2297 Rocket - Orbit

View from above orbital plane
View from above orbital plane
View from above satellite
View from above satellite

Ground track
Ground track

The orbit data is extracted from the following two-line orbital elements,

1 23405U 94077B   20226.66697127 -.00000293 +00000-0 -12617-3 0  9993
2 23405 070.9844 310.1666 0003323 324.9208 035.1695 14.15222437328452
Epoch (UTC): 13 August 2020 16:00:26
Eccentricity: 0.0003323
inclination: 70.9844°
perigee height: 839 km
apogee height: 844 km
right ascension of ascending node: 310.1666°
argument of perigee: 324.9208°
revolutions per day: 14.15222437
mean anomaly at epoch: 35.1695°
orbit number at epoch: 32845

The dashed part of the orbit path shows where the satellite is in the earth's shadow,  

DLR